Regional Weather Roundup
Issued by NWS Charleston, WV

Home | Current Version | Previous Version | Graphics & Text | Print | Product List | Glossary On
Versions: 1 2 3 4 5 6 7 8 9 10 11 12 13 14 15 16 17 18 19 20 21 22 23 24 25 26 27 28 29 30 31 32 33 34 35 36 37 38 39 40 41 42 43 44 45 46 47 48 49
000
ASUS41 KRLX 031310
RWRRLX
West Virginia Regional Weather Roundup
National Weather Service Charleston WV
900 AM EDT SUN MAY 03 2015

Note: "fair" indicates few or no clouds below 12,000 feet with no
significant weather and/or obstructions to visibility.

WVZ003-031400-
Northern Panhandle of West Virginia

CITY           SKY/WX    TMP DP  RH WIND       PRES   REMARKS
WHEELING       SUNNY     59  42  53 SW5       30.14R
$$

WVZ009-031400-
Northwest West Virginia

CITY           SKY/WX    TMP DP  RH WIND       PRES   REMARKS
PARKERSBURG    SUNNY     56  43  61 CALM      30.18R
$$

WVZ006-031400-
Western West Virginia

CITY           SKY/WX    TMP DP  RH WIND       PRES   REMARKS
HUNTINGTON     MOSUNNY   56  46  69 S5        30.16R
$$

WVZ015-031400-
West Central West Virginia

CITY           SKY/WX    TMP DP  RH WIND       PRES   REMARKS
CHARLESTON     MOSUNNY   53  42  66 CALM      30.17R
$$

WVZ022-031-031400-
North Central West Virginia

CITY           SKY/WX    TMP DP  RH WIND       PRES   REMARKS
CLARKSBURG     SUNNY     53  46  77 CALM      30.17R
MORGANTOWN     SUNNY     60  40  47 VRB3      30.17R
$$

WVZ025-035-042-045-031400-
Southern West Virginia

CITY           SKY/WX    TMP DP  RH WIND       PRES   REMARKS
BECKLEY        SUNNY     60  38  43 CALM      30.21R
LOGAN            N/A     57  43  58 CALM      30.15S
BLUEFIELD      SUNNY     61  35  37 SE3       30.23R
LEWISBURG      SUNNY     50  40  69 CALM      30.22S
$$

WVZ047-031400-
Northern Mountains of West Virginia

CITY           SKY/WX    TMP DP  RH WIND       PRES   REMARKS
ELKINS         MOSUNNY   50  41  71 CALM      30.21R
$$

WVZ052-031400-
Eastern Panhandle of West Virginia

CITY           SKY/WX    TMP DP  RH WIND       PRES   REMARKS
MARTINSBURG    SUNNY     58  45  62 SE5       30.14R
PETERSBURG     CLOUDY    49  42  78 CALM      30.19R
$$


USA.gov is the U.S. government's official web portal to all federal, state and local government web resources and services.